Weather History for Springfield, MO

Change the Weather History Date:

Friday, May 3, 2013

  Actual Average Record
Temperature  
Mean Temperature 34 °F 61 °F  
Max Temperature 36 °F 72 °F 88 °F (1952)
Min Temperature 32 °F 50 °F 31 °F (1907)
Degree Days  
Heating Degree Days 31 5  
Month to date heating degree days 48 16  
Since 1 July heating degree days 4400 4490  
Cooling Degree Days 0 1  
Month to date cooling degree days 4 3  
Year to date cooling degree days 21 28  
Moisture  
Dew Point 32 °F    
Average Humidity 93    
Maximum Humidity 96    
Minimum Humidity 89    
Precipitation  
Precipitation 0.82 in 0.18 in 2.06 in (1990)
Month to date precipitation 1.14 0.53  
Year to date precipitation 16.89 13.46  
Snow  
Snow 1.40 in - - ()
Month to date snowfall 1.4  
Since 1 July snowfall 12.7  
Snow Depth 1.00 in    
Sea Level Pressure  
Sea Level Pressure 30.04 in    
Wind  
Wind Speed 12 mph (NW)    
Max Wind Speed 22 mph    
Max Gust Speed 28 mph    
Visibility 4 miles    
Events Rain , Snow    
T = Trace of Precipitation, MM = Missing Value Source: NWS Daily Summary

Daily Weather History Graph

Daily Weather History Graph

Search for Another Location

Airport:

Trip Planner

Search our weather history database for the weather conditions in past years. The results will help you decide how hot, cold, wet, or windy it might be!

Date:

Astronomy

May. 03, 2013 Rise Set
Actual Time 6:16 AM CDT 8:05 PM CDT
Civil Twilight 5:48 AM CDT 8:33 PM CDT
Nautical Twilight 5:14 AM CDT 9:07 PM CDT
Astronomical Twilight 4:37 AM CDT 9:44 PM CDT
Moon 2:32 AM CDT (5/3) 2:08 PM CDT (5/3)
Length of Visible Light 14h 45m
Length of Day
13h 48m
Last Quarter, 37% of the Moon is Illuminated
May 3
Last Quarter
May 9
New
May 17
First Quarter
May 24
Full
May 31
Last Quarter

Hourly Weather History & Observations

Time (CDT) Temp. Windchill Dew Point Humidity Pressure Visibility Wind Dir Wind Speed Gust Speed Precip Events Conditions
12:40 AM 33.1 °F 22.6 °F 32.0 °F 96% 30.20 in 5.0 mi NNW 16.1 mph - 0.09 in Rain Rain
12:52 AM 33.1 °F 24.4 °F 32.0 °F 96% 30.21 in 6.0 mi NW 11.5 mph - 0.11 in Rain Light Rain
1:01 AM 33.1 °F 24.4 °F 32.0 °F 96% 30.19 in 4.0 mi NW 11.5 mph - 0.00 in Rain Light Rain
1:11 AM 33.1 °F 23.9 °F 32.0 °F 96% 30.18 in 3.0 mi NW 12.7 mph - 0.01 in Rain Rain
1:16 AM 33.1 °F 24.4 °F 32.0 °F 96% 30.18 in 2.5 mi NW 11.5 mph - 0.02 in Rain Rain
1:50 AM 33.8 °F 24.8 °F 32.0 °F 93% 30.16 in 3.0 mi NNW 12.7 mph - 0.06 in Rain Light Rain
1:52 AM 33.1 °F 23.4 °F 32.0 °F 96% 30.17 in 3.0 mi NNW 13.8 mph - 0.06 in Rain Light Rain
2:52 AM 33.1 °F 21.9 °F 30.9 °F 92% 30.14 in 4.0 mi NNW 18.4 mph - 0.13 in Rain Heavy Rain
3:02 AM 33.1 °F 22.6 °F 30.9 °F 92% 30.13 in 4.0 mi NNW 16.1 mph - 0.04 in Rain Heavy Rain
3:16 AM 33.1 °F 23.4 °F 30.9 °F 92% 30.13 in 7.0 mi NNW 13.8 mph - 0.08 in Rain Rain
3:52 AM 33.1 °F 21.5 °F 30.9 °F 92% 30.12 in 9.0 mi NNW 19.6 mph - 0.12 in Snow Light Snow
4:11 AM 33.1 °F 22.6 °F 30.9 °F 92% 30.10 in 6.0 mi NNW 16.1 mph - 0.02 in Rain Light Rain
4:52 AM 33.1 °F 23.0 °F 30.9 °F 92% 30.13 in 2.5 mi NNW 15.0 mph - 0.04 in Snow Light Snow
5:34 AM 32.0 °F 20.8 °F 30.9 °F 96% 30.08 in 4.0 mi NNW 17.3 mph - 0.07 in   Overcast
5:52 AM 32.0 °F 21.6 °F 30.9 °F 96% 30.12 in 6.0 mi NNW 15.0 mph - 0.09 in   Overcast
6:52 AM 33.1 °F 23.9 °F 30.9 °F 92% 30.11 in 3.0 mi NW 12.7 mph - 0.04 in Rain Light Rain
7:45 AM 33.1 °F 23.4 °F 30.9 °F 92% 30.05 in 2.0 mi NNW 13.8 mph - 0.02 in Rain Light Rain
7:52 AM 33.1 °F 23.4 °F 30.9 °F 92% 30.08 in 1.5 mi NNW 13.8 mph - 0.03 in Rain Rain
8:11 AM 33.1 °F 23.0 °F 30.9 °F 92% 30.06 in 0.8 mi NNW 15.0 mph - 0.02 in Rain Rain
8:20 AM 33.1 °F 23.9 °F 30.9 °F 92% 30.06 in 1.0 mi NNW 12.7 mph - 0.03 in Snow Light Snow
8:49 AM 33.8 °F 23.9 °F 30.2 °F 87% 30.05 in 3.0 mi NNW 15.0 mph - 0.05 in   Overcast
8:52 AM 33.1 °F 22.2 °F 30.9 °F 92% 30.06 in 4.0 mi NNW 17.3 mph - 0.05 in Snow Light Snow
9:08 AM 33.1 °F 23.0 °F 30.9 °F 92% 30.05 in 2.0 mi NNW 15.0 mph - 0.00 in Snow Light Snow
9:41 AM 33.1 °F 22.6 °F 32.0 °F 96% 30.03 in 3.0 mi NNW 16.1 mph - 0.00 in Snow Light Snow
9:52 AM 33.1 °F 23.4 °F 32.0 °F 96% 30.06 in 1.5 mi NW 13.8 mph - 0.00 in Snow Light Snow
10:05 AM 33.1 °F 24.4 °F 32.0 °F 96% 30.04 in 0.8 mi NW 11.5 mph 21.9 mph 0.01 in Snow Light Snow
10:18 AM 33.1 °F 24.4 °F 32.0 °F 96% 30.04 in 1.0 mi NW 11.5 mph - 0.02 in Snow Light Snow
10:30 AM 33.1 °F 24.9 °F 32.0 °F 96% 30.05 in 0.8 mi NW 10.4 mph 19.6 mph 0.03 in Snow Light Snow
10:40 AM 33.1 °F 24.4 °F 32.0 °F 96% 30.06 in 1.2 mi NW 11.5 mph - 0.03 in Snow Light Snow
11:02 AM 33.1 °F 22.6 °F 32.0 °F 96% 30.03 in 3.0 mi NW 16.1 mph - 0.00 in Snow Light Snow
11:37 AM 34.0 °F 24.6 °F 32.0 °F 92% 30.04 in 2.5 mi NW 13.8 mph - 0.00 in Snow Light Snow
11:52 AM 34.0 °F 23.8 °F 32.0 °F 92% 30.06 in 2.5 mi NW 16.1 mph 21.9 mph 0.00 in Snow Light Snow
12:04 PM 34.0 °F 23.4 °F 32.0 °F 92% 30.01 in 1.5 mi NW 17.3 mph 24.2 mph 0.00 in Snow Light Snow
12:20 PM 34.0 °F 24.2 °F 33.1 °F 96% 30.03 in 3.0 mi NW 15.0 mph 21.9 mph 0.01 in Snow Light Snow
12:52 PM 35.1 °F 25.2 °F 33.1 °F 92% 30.04 in 9.0 mi NW 16.1 mph - 0.01 in Snow Light Snow
1:52 PM 35.1 °F 24.8 °F 33.1 °F 92% 30.04 in 7.0 mi NNW 17.3 mph - 0.00 in Rain Light Rain
2:02 PM 35.1 °F 25.5 °F 33.1 °F 92% 30.01 in 4.0 mi NNW 15.0 mph 23.0 mph 0.00 in Snow Light Snow
2:38 PM 35.1 °F 26.9 °F 33.1 °F 92% 30.01 in 1.8 mi NNW 11.5 mph - 0.01 in Snow Light Snow
2:52 PM 34.0 °F 25.5 °F 33.1 °F 96% 30.03 in 1.2 mi NW 11.5 mph - 0.03 in Snow Light Snow
3:05 PM 35.1 °F 27.4 °F 33.1 °F 92% 30.00 in 2.0 mi NW 10.4 mph - 0.00 in Snow Light Snow
3:15 PM 35.1 °F 26.9 °F 34.0 °F 96% 29.99 in 1.8 mi NW 11.5 mph - 0.02 in Snow Light Snow
3:23 PM 35.1 °F 25.5 °F 34.0 °F 96% 29.99 in 2.5 mi NW 15.0 mph - 0.02 in Snow Light Snow
3:36 PM 35.1 °F 27.9 °F 34.0 °F 96% 29.99 in 4.0 mi NW 9.2 mph - 0.03 in Snow Light Snow
3:52 PM 35.1 °F 25.9 °F 34.0 °F 96% 30.01 in 6.0 mi NW 13.8 mph 20.7 mph 0.03 in Snow Light Snow
4:52 PM 36.0 °F 27.1 °F 34.0 °F 93% 29.99 in 8.0 mi NW 13.8 mph - 0.01 in Snow Light Snow
5:52 PM 36.0 °F 29.0 °F 34.0 °F 93% 29.99 in 10.0 mi NW 9.2 mph - 0.01 in Rain Light Rain
6:52 PM 35.1 °F 29.3 °F 33.1 °F 92% 29.99 in 4.0 mi NW 6.9 mph - 0.01 in Snow Light Snow
7:10 PM 34.0 °F 28.0 °F 32.0 °F 92% 29.96 in 1.8 mi West 6.9 mph - 0.01 in Snow Light Snow
7:24 PM 33.1 °F 27.7 °F 32.0 °F 96% 29.95 in 1.0 mi WNW 5.8 mph - 0.03 in Snow Light Snow
7:30 PM 33.1 °F 26.9 °F 32.0 °F 96% 29.95 in 0.8 mi WNW 6.9 mph - 0.03 in Snow Light Snow
7:52 PM 33.1 °F 27.7 °F 32.0 °F 96% 29.98 in 0.8 mi WNW 5.8 mph - 0.06 in Snow Light Snow
8:19 PM 33.1 °F 27.7 °F 32.0 °F 96% 29.95 in 1.2 mi WNW 5.8 mph - 0.03 in Snow Light Snow
8:35 PM 33.1 °F 26.9 °F 32.0 °F 96% 29.94 in 3.0 mi WNW 6.9 mph - 0.03 in Snow Light Snow
8:44 PM 33.1 °F 26.1 °F 32.0 °F 96% 29.95 in 4.0 mi NW 8.1 mph - 0.03 in Snow Light Snow
8:52 PM 33.1 °F 26.9 °F 32.0 °F 96% 29.98 in 4.0 mi WNW 6.9 mph - 0.03 in Snow Light Snow
9:05 PM 33.1 °F 26.9 °F 32.0 °F 96% 29.95 in 2.0 mi WNW 6.9 mph - 0.01 in Snow Light Snow
9:14 PM 33.1 °F 26.9 °F 32.0 °F 96% 29.95 in 1.8 mi NW 6.9 mph - 0.02 in Snow Light Snow
9:25 PM 33.1 °F 27.7 °F 32.0 °F 96% 29.94 in 2.0 mi WNW 5.8 mph - 0.02 in Snow Light Snow
9:36 PM 33.1 °F 26.9 °F 32.0 °F 96% 29.94 in 3.0 mi WNW 6.9 mph - 0.02 in Snow Light Snow
9:48 PM 33.8 °F 27.7 °F 32.0 °F 93% 29.94 in 7.0 mi WNW 6.9 mph - 0.02 in Snow Light Snow
9:52 PM 33.1 °F 26.9 °F 32.0 °F 96% 29.97 in 8.0 mi WNW 6.9 mph - 0.02 in Snow Light Snow
10:00 PM 33.1 °F 27.7 °F 32.0 °F 96% 29.94 in 9.0 mi NW 5.8 mph - 0.00 in   Overcast
10:24 PM 33.1 °F 28.7 °F 32.0 °F 96% 29.93 in 3.0 mi WNW 4.6 mph - 0.01 in Snow Light Snow
10:52 PM 33.1 °F 27.7 °F 32.0 °F 96% 29.95 in 7.0 mi WNW 5.8 mph - 0.01 in Snow Light Snow
11:11 PM 33.1 °F 27.7 °F 32.0 °F 96% 29.91 in 10.0 mi WNW 5.8 mph - 0.00 in Snow Light Snow
11:52 PM 33.1 °F 28.7 °F 32.0 °F 96% 29.92 in 7.0 mi WNW 4.6 mph - 0.00 in Snow Light Snow